IZ2OSD Weather Reports


time (UTC)temp
C
wind
direction
speed
KPH
gust
KPH
rain 1hr
cm
rain 24hr
cm
rain mn
cm
humidity
%
barometer
mb
20260902024257 22 0.0 0.0 0.00 0.00 0.00 79 1017.9
20260902023253 21 315 1.6 3.2 0.00 0.00 0.00 80 1017.6
20260902022250 21 315 1.6 3.2 0.00 0.00 0.00 79 1017.8
20260902021301 22 315 1.6 3.2 0.00 0.00 0.00 78 1017.4
20260902020239 22 315 1.6 3.2 0.00 0.00 0.00 78 1017.7
20260902015233 22 315 1.6 3.2 0.00 0.00 0.00 78 1017.5
20260902014229 22 315 3.2 4.8 0.00 0.00 0.00 78 1017.8
20260902013226 22 315 4.8 6.4 0.00 0.00 0.00 77 1017.6
20260902012257 22 337 1.6 3.2 0.00 0.00 0.00 76 1017.8
20260902011213 22 315 3.2 4.8 0.00 0.00 0.00 77 1017.7
20260902010203 22 315 3.2 4.8 0.00 0.00 0.00 77 1017.8
20260902005200 22 315 3.2 4.8 0.00 0.00 0.00 77 1017.7
20260902004156 22 315 1.6 3.2 0.00 0.00 0.00 77 1018.1
20260902003152 22 315 3.2 4.8 0.00 0.00 0.00 77 1017.8
20260902002149 22 315 1.6 3.2 0.00 0.00 0.00 77 1017.8
20260902001137 22 315 0.0 3.2 0.00 0.00 0.00 78 1017.8
20260902000136 22 315 0.0 3.2 0.00 0.00 0.00 78 1017.8
20260901235130 22 315 1.6 3.2 0.00 0.00 0.00 76 1017.7
20260901234127 22 315 1.6 4.8 0.00 0.00 0.00 76 1018.1
20260901233124 23 315 1.6 6.4 0.00 0.00 0.00 76 1017.7
20260901232116 23 0.0 0.0 0.00 0.00 0.00 75 1017.5
20260901231111 23 0.0 0.0 0.00 0.00 0.00 76 1017.8
20260901230107 23 337 0.0 3.2 0.00 0.00 0.00 76 1017.7
20260901225104 23 315 1.6 3.2 0.00 0.00 0.00 76 1018.2
20260901224100 23 315 0.0 3.2 0.00 0.00 0.00 76 1018.1
20260901222311 23 315 3.2 4.8 0.00 0.00 0.00 74 1017.6
20260901221309 23 315 3.2 4.8 0.00 0.00 0.00 75 1017.6
20260901220324 23 315 3.2 4.8 0.00 0.00 0.00 75 1017.4
20260901215300 23 315 1.6 4.8 0.00 0.00 0.00 75 1017.6
20260901212223 23 337 3.2 4.8 0.00 0.00 0.00 73 1017.6
20260901205558 23 315 3.2 4.8 0.00 0.00 0.00 72 1017.6
20260901202731 24 315 1.6 3.2 0.00 0.00 0.00 71 1017.4
20260901201730 25 315 1.6 3.2 0.00 0.00 0.00 70 1017.4
20260901200744 25 315 1.6 3.2 0.00 0.00 0.00 70 1017.4
20260901195305 25 315 1.6 4.8 0.00 0.00 0.00 70 1017.2
20260901194251 25 315 3.2 4.8 0.00 0.00 0.00 69 1017.1
20260901193248 25 0.0 0.0 0.00 0.00 0.00 68 1017.3
20260901192306 25 315 1.6 3.2 0.00 0.00 0.00 68 1017.1
20260901191238 25 315 1.6 3.2 0.00 0.00 0.00 68 1017.0
20260901190235 25 315 1.6 3.2 0.00 0.00 0.00 67 1016.9
20260901185247 26 0.0 0.0 0.00 0.00 0.00 66 1016.6
20260901184225 26 0.0 0.0 0.00 0.00 0.00 66 1016.7
20260901183220 26 0.0 0.0 0.00 0.00 0.00 65 1016.7
20260901182216 26 0.0 0.0 0.00 0.00 0.00 65 1016.6
20260901181212 27 0.0 0.0 0.00 0.00 0.00 63 1016.5
20260901175553 27 0.0 1.6 0.00 0.00 0.00 59 1016.4
20260901174549 27 315 1.6 3.2 0.00 0.00 0.00 58 1016.5
20260901173544 27 315 3.2 4.8 0.00 0.00 0.00 58 1016.2
20260901172541 28 315 3.2 4.8 0.00 0.00 0.00 57 1016.2
20260901171557 28 315 3.2 4.8 0.00 0.00 0.00 57 1016.3
20260901170535 28 315 3.2 6.4 0.00 0.00 0.00 56 1016.4
20260901165531 28 0 0.0 4.8 0.00 0.00 0.00 56 1016.4
20260901164528 28 315 0.0 1.6 0.00 0.00 0.00 56 1016.2
20260901163525 28 0.0 1.6 0.00 0.00 0.00 56 1016.4
20260901161645 28 112 3.2 6.4 0.00 0.00 0.00 54 1016.6
20260901160100 28 337 3.2 6.4 0.00 0.00 0.00 55 1016.3
20260901154107 29 112 1.6 3.2 0.00 0.00 0.00 54 1016.3
20260901153106 28 315 1.6 3.2 0.00 0.00 0.00 55 1016.2
20260901152101 28 112 0.0 1.6 0.00 0.00 0.00 55 1016.5
20260901150746 28 135 4.8 6.4 0.00 0.00 0.00 55 1016.5
20260901145757 28 315 4.8 9.7 0.00 0.00 0.00 54 1016.7
20260901144715 29 45 1.6 3.2 0.00 0.00 0.00 54 1016.7
20260901143707 28 315 3.2 9.7 0.00 0.00 0.00 56 1016.7
20260901142725 28 315 8.0 17.7 0.00 0.00 0.00 57 1016.7
20260901141701 28 315 6.4 9.7 0.00 0.00 0.00 57 1016.8
20260901140202 29 0 3.2 6.4 0.00 0.00 0.00 55 1017.0
20260901135153 28 135 0.0 3.2 0.00 0.00 0.00 54 1017.0
20260901134150 28 315 6.4 12.9 0.00 0.00 0.00 55 1016.9
20260901133146 28 337 3.2 9.7 0.00 0.00 0.00 56 1017.0
20260901132143 28 22 4.8 12.9 0.00 0.00 0.00 55 1017.2
20260901131139 28 337 3.2 6.4 0.00 0.00 0.00 56 1017.2
20260901130136 28 202 3.2 9.7 0.00 0.00 0.00 57 1017.4
20260901125132 28 315 1.6 9.7 0.00 0.00 0.00 55 1017.5
20260901124129 28 0.0 0.0 0.00 0.00 0.00 57 1017.4
20260901123125 28 315 1.6 4.8 0.00 0.00 0.00 57 1017.6
20260901121152 28 112 0.0 4.8 0.00 0.00 0.00 53 1017.8
20260901120149 27 0.0 1.6 0.00 0.00 0.00 58 1017.6
20260901115200 28 90 4.8 9.7 0.00 0.00 0.00 56 1017.7
20260901114135 28 112 6.4 12.9 0.00 0.00 0.00 56 1017.9